Year,Month,Day,Hour,Minute,Value (Times are PST for temperature in C)
2015,08,23,00,00,14.70
2015,08,23,00,01,14.70
2015,08,23,00,02,14.70
2015,08,23,00,03,14.70
2015,08,23,00,04,14.70
2015,08,23,00,05,14.70
2015,08,23,00,06,14.70
2015,08,23,00,07,14.70
2015,08,23,00,08,14.70
2015,08,23,00,09,14.70
2015,08,23,00,10,14.70
2015,08,23,00,11,14.70
2015,08,23,00,12,14.70
2015,08,23,00,13,14.70
2015,08,23,00,14,14.70
2015,08,23,00,15,14.70
2015,08,23,00,16,14.70
2015,08,23,00,17,14.70
2015,08,23,00,18,14.70
2015,08,23,00,19,14.70
2015,08,23,00,20,14.70
2015,08,23,00,21,14.70
2015,08,23,00,22,14.70
2015,08,23,00,23,14.60
2015,08,23,00,24,14.60
2015,08,23,00,25,14.60
2015,08,23,00,26,14.60
2015,08,23,00,27,14.60
2015,08,23,00,28,14.50
2015,08,23,00,29,14.50
2015,08,23,00,30,14.40
2015,08,23,00,31,14.40
2015,08,23,00,32,14.40
2015,08,23,00,33,14.40
2015,08,23,00,34,14.40
2015,08,23,00,35,14.30
2015,08,23,00,36,14.30
2015,08,23,00,37,14.30
2015,08,23,00,38,14.30
2015,08,23,00,39,14.30
2015,08,23,00,40,14.30
2015,08,23,00,41,14.30
2015,08,23,00,42,14.30
2015,08,23,00,43,14.30
2015,08,23,00,44,14.30
2015,08,23,00,45,14.30
2015,08,23,00,46,14.30
2015,08,23,00,47,14.30
2015,08,23,00,48,14.30
2015,08,23,00,49,14.30
2015,08,23,00,50,14.30
2015,08,23,00,51,14.30
2015,08,23,00,52,14.30
2015,08,23,00,53,14.30
2015,08,23,00,54,14.30
2015,08,23,00,55,14.30
2015,08,23,00,56,14.30
2015,08,23,00,57,14.30
2015,08,23,00,58,14.30
2015,08,23,00,59,14.20
2015,08,23,01,00,14.20
2015,08,23,01,01,14.20
2015,08,23,01,02,14.20
2015,08,23,01,03,14.20
2015,08,23,01,04,14.20
2015,08,23,01,05,14.20
2015,08,23,01,06,14.20
2015,08,23,01,07,14.20
2015,08,23,01,08,14.20
2015,08,23,01,09,14.20
2015,08,23,01,10,14.20
2015,08,23,01,11,14.10
2015,08,23,01,12,14.10
2015,08,23,01,13,14.10
2015,08,23,01,14,14.10
2015,08,23,01,15,14.10
2015,08,23,01,16,14.10
2015,08,23,01,17,14.10
2015,08,23,01,18,14.10
2015,08,23,01,19,14.00
2015,08,23,01,20,14.00
2015,08,23,01,21,14.00
2015,08,23,01,22,14.00
2015,08,23,01,23,14.00
2015,08,23,01,24,14.00
2015,08,23,01,25,14.00
2015,08,23,01,26,13.90
2015,08,23,01,27,13.90
2015,08,23,01,28,13.90
2015,08,23,01,29,13.90
2015,08,23,01,30,13.90
2015,08,23,01,31,13.90
2015,08,23,01,32,13.80
2015,08,23,01,33,13.80
2015,08,23,01,34,13.80
2015,08,23,01,35,13.80
2015,08,23,01,36,13.70
2015,08,23,01,37,13.70
2015,08,23,01,38,13.70
2015,08,23,01,39,13.70
2015,08,23,01,40,13.60
2015,08,23,01,41,13.60
2015,08,23,01,42,13.60
2015,08,23,01,43,13.60
2015,08,23,01,44,13.50
2015,08,23,01,45,13.50
2015,08,23,01,46,13.50
2015,08,23,01,47,13.40
2015,08,23,01,48,13.40
2015,08,23,01,49,13.40
2015,08,23,01,50,13.40
2015,08,23,01,51,13.40
2015,08,23,01,52,13.40
2015,08,23,01,53,13.40
2015,08,23,01,54,13.40
2015,08,23,01,55,13.40
2015,08,23,01,56,13.40
2015,08,23,01,57,13.40
2015,08,23,01,58,13.40
2015,08,23,01,59,13.30
2015,08,23,02,00,13.30
2015,08,23,02,01,13.30
2015,08,23,02,02,13.30
2015,08,23,02,03,13.30
2015,08,23,02,04,13.30
2015,08,23,02,05,13.30
2015,08,23,02,06,13.30
2015,08,23,02,07,13.30
2015,08,23,02,08,13.30
2015,08,23,02,09,13.30
2015,08,23,02,10,13.30
2015,08,23,02,11,13.30
2015,08,23,02,12,13.30
2015,08,23,02,13,13.30
2015,08,23,02,14,13.30
2015,08,23,02,15,13.30
2015,08,23,02,16,13.30
2015,08,23,02,17,13.30
2015,08,23,02,18,13.30
2015,08,23,02,19,13.30
2015,08,23,02,20,13.30
2015,08,23,02,21,13.30
2015,08,23,02,22,13.30
2015,08,23,02,23,13.30
2015,08,23,02,24,13.30
2015,08,23,02,25,13.40
2015,08,23,02,26,13.40
2015,08,23,02,27,13.40
2015,08,23,02,28,13.40
2015,08,23,02,29,13.40
2015,08,23,02,30,13.40
2015,08,23,02,31,13.40
2015,08,23,02,32,13.40
2015,08,23,02,33,13.40
2015,08,23,02,34,13.40
2015,08,23,02,35,13.40
2015,08,23,02,36,13.40
2015,08,23,02,37,13.40
2015,08,23,02,38,13.40
2015,08,23,02,39,13.50
2015,08,23,02,40,13.50
2015,08,23,02,41,13.50
2015,08,23,02,42,13.60
2015,08,23,02,43,13.60
2015,08,23,02,44,13.60
2015,08,23,02,45,13.70
2015,08,23,02,46,13.70
2015,08,23,02,47,13.70
2015,08,23,02,48,13.70
2015,08,23,02,49,13.70
2015,08,23,02,50,13.80
2015,08,23,02,51,13.70
2015,08,23,02,52,13.70
2015,08,23,02,53,13.70
2015,08,23,02,54,13.70
2015,08,23,02,55,13.70
2015,08,23,02,56,13.60
2015,08,23,02,57,13.60
2015,08,23,02,58,13.60
2015,08,23,02,59,13.50
2015,08,23,03,00,13.50
2015,08,23,03,01,13.40
2015,08,23,03,02,13.40
2015,08,23,03,03,13.40
2015,08,23,03,04,13.40
2015,08,23,03,05,13.30
2015,08,23,03,06,13.30
2015,08,23,03,07,13.30
2015,08,23,03,08,13.20
2015,08,23,03,09,13.20
2015,08,23,03,10,13.20
2015,08,23,03,11,13.10
2015,08,23,03,12,13.10
2015,08,23,03,13,13.10
2015,08,23,03,14,13.10
2015,08,23,03,15,13.10
2015,08,23,03,16,13.10
2015,08,23,03,17,13.10
2015,08,23,03,18,13.10
2015,08,23,03,19,13.00
2015,08,23,03,20,13.00
2015,08,23,03,21,13.00
2015,08,23,03,22,13.00
2015,08,23,03,23,12.90
2015,08,23,03,24,12.90
2015,08,23,03,25,12.90
2015,08,23,03,26,12.80
2015,08,23,03,27,12.80
2015,08,23,03,28,12.80
2015,08,23,03,29,12.80
2015,08,23,03,30,12.70
2015,08,23,03,31,12.70
2015,08,23,03,32,12.70
2015,08,23,03,33,12.70
2015,08,23,03,34,12.70
2015,08,23,03,35,12.70
2015,08,23,03,36,12.60
2015,08,23,03,37,12.60
2015,08,23,03,38,12.60
2015,08,23,03,39,12.60
2015,08,23,03,40,12.60
2015,08,23,03,41,12.50
2015,08,23,03,42,12.50
2015,08,23,03,43,12.40
2015,08,23,03,44,12.40
2015,08,23,03,45,12.30
2015,08,23,03,46,12.30
2015,08,23,03,47,12.30
2015,08,23,03,48,12.30
2015,08,23,03,49,12.20
2015,08,23,03,50,12.20
2015,08,23,03,51,12.20
2015,08,23,03,52,12.20
2015,08,23,03,53,12.20
2015,08,23,03,54,12.20
2015,08,23,03,55,12.10
2015,08,23,03,56,12.10
2015,08,23,03,57,12.10
2015,08,23,03,58,12.10
2015,08,23,03,59,12.10
2015,08,23,04,00,12.00
2015,08,23,04,01,12.00
2015,08,23,04,02,12.00
2015,08,23,04,03,12.00
2015,08,23,04,04,12.00
2015,08,23,04,05,12.00
2015,08,23,04,06,11.90
2015,08,23,04,07,12.00
2015,08,23,04,08,12.00
2015,08,23,04,09,12.00
2015,08,23,04,10,12.00
2015,08,23,04,11,12.10
2015,08,23,04,12,12.10
2015,08,23,04,13,12.10
2015,08,23,04,14,12.20
2015,08,23,04,15,12.20
2015,08,23,04,16,12.20
2015,08,23,04,17,12.20
2015,08,23,04,18,12.20
2015,08,23,04,19,12.20
2015,08,23,04,20,12.20
2015,08,23,04,21,12.20
2015,08,23,04,22,12.20
2015,08,23,04,23,12.20
2015,08,23,04,24,12.10
2015,08,23,04,25,12.10
2015,08,23,04,26,12.00
2015,08,23,04,27,12.00
2015,08,23,04,28,11.90
2015,08,23,04,29,11.90
2015,08,23,04,30,11.90
2015,08,23,04,31,11.90
2015,08,23,04,32,11.90
2015,08,23,04,33,11.80
2015,08,23,04,34,11.80
2015,08,23,04,35,11.80
2015,08,23,04,36,11.80
2015,08,23,04,37,11.80
2015,08,23,04,38,11.80
2015,08,23,04,39,11.80
2015,08,23,04,40,11.80
2015,08,23,04,41,11.80
2015,08,23,04,42,11.80
2015,08,23,04,43,11.80
2015,08,23,04,44,11.80
2015,08,23,04,45,11.80
2015,08,23,04,46,11.80
2015,08,23,04,47,11.80
2015,08,23,04,48,11.70
2015,08,23,04,49,11.70
2015,08,23,04,50,11.70
2015,08,23,04,51,11.70
2015,08,23,04,52,11.60
2015,08,23,04,53,11.60
2015,08,23,04,54,11.60
2015,08,23,04,55,11.60
2015,08,23,04,56,11.50
2015,08,23,04,57,11.50
2015,08,23,04,58,11.40
2015,08,23,04,59,11.40
2015,08,23,05,00,11.40
2015,08,23,05,01,11.40
2015,08,23,05,02,11.30
2015,08,23,05,03,11.30
2015,08,23,05,04,11.30
2015,08,23,05,05,11.30
2015,08,23,05,06,11.30
2015,08,23,05,07,11.30
2015,08,23,05,08,11.30
2015,08,23,05,09,11.30
2015,08,23,05,10,11.30
2015,08,23,05,11,11.30
2015,08,23,05,12,11.30
2015,08,23,05,13,11.20
2015,08,23,05,14,11.20
2015,08,23,05,15,11.20
2015,08,23,05,16,11.20
2015,08,23,05,17,11.20
2015,08,23,05,18,11.10
2015,08,23,05,19,11.10
2015,08,23,05,20,11.10
2015,08,23,05,21,11.10
2015,08,23,05,22,11.10
2015,08,23,05,23,11.10
2015,08,23,05,24,11.10
2015,08,23,05,25,11.10
2015,08,23,05,26,11.10
2015,08,23,05,27,11.10
2015,08,23,05,28,11.10
2015,08,23,05,29,11.10
2015,08,23,05,30,11.10
2015,08,23,05,31,11.10
2015,08,23,05,32,11.10
2015,08,23,05,33,11.10
2015,08,23,05,34,11.10
2015,08,23,05,35,11.10
2015,08,23,05,36,11.10
2015,08,23,05,37,11.10
2015,08,23,05,38,11.10
2015,08,23,05,39,11.10
2015,08,23,05,40,11.10
2015,08,23,05,41,11.00
2015,08,23,05,42,11.00
2015,08,23,05,43,11.00
2015,08,23,05,44,10.90
2015,08,23,05,45,10.90
2015,08,23,05,46,10.90
2015,08,23,05,47,10.90
2015,08,23,05,48,10.80
2015,08,23,05,49,10.80
2015,08,23,05,50,10.80
2015,08,23,05,51,10.80
2015,08,23,05,52,10.80
2015,08,23,05,53,10.80
2015,08,23,05,54,10.80
2015,08,23,05,55,10.80
2015,08,23,05,56,10.80
2015,08,23,05,57,10.80
2015,08,23,05,58,10.80
2015,08,23,05,59,10.80
2015,08,23,06,00,10.90
2015,08,23,06,01,10.90
2015,08,23,06,02,10.90
2015,08,23,06,03,10.90
2015,08,23,06,04,10.90
2015,08,23,06,05,10.90
2015,08,23,06,06,10.90
2015,08,23,06,07,10.90
2015,08,23,06,08,10.90
2015,08,23,06,09,10.90
2015,08,23,06,10,10.90
2015,08,23,06,11,10.90
2015,08,23,06,12,10.90
2015,08,23,06,13,10.90
2015,08,23,06,14,10.90
2015,08,23,06,15,10.90
2015,08,23,06,16,10.90
2015,08,23,06,17,10.90
2015,08,23,06,18,11.00
2015,08,23,06,19,11.00
2015,08,23,06,20,11.00
2015,08,23,06,21,11.00
2015,08,23,06,22,11.10
2015,08,23,06,23,11.10
2015,08,23,06,24,11.10
2015,08,23,06,25,11.10
2015,08,23,06,26,11.10
2015,08,23,06,27,11.10
2015,08,23,06,28,11.00
2015,08,23,06,29,11.00
2015,08,23,06,30,11.00
2015,08,23,06,31,10.90
2015,08,23,06,32,10.90
2015,08,23,06,33,10.90
2015,08,23,06,34,10.90
2015,08,23,06,35,10.90
2015,08,23,06,36,10.90
2015,08,23,06,37,10.90
2015,08,23,06,38,10.90
2015,08,23,06,39,11.00
2015,08,23,06,40,11.00
2015,08,23,06,41,11.00
2015,08,23,06,42,11.00
2015,08,23,06,43,11.00
2015,08,23,06,44,11.00
2015,08,23,06,45,11.00
2015,08,23,06,46,11.00
2015,08,23,06,47,11.00
2015,08,23,06,48,11.00
2015,08,23,06,49,11.10
2015,08,23,06,50,11.10
2015,08,23,06,51,11.10
2015,08,23,06,52,11.10
2015,08,23,06,53,11.20
2015,08,23,06,54,11.20
2015,08,23,06,55,11.20
2015,08,23,06,56,11.30
2015,08,23,06,57,11.30
2015,08,23,06,58,11.30
2015,08,23,06,59,11.30
2015,08,23,07,00,11.30
2015,08,23,07,01,11.40
2015,08,23,07,02,11.40
2015,08,23,07,03,11.40
2015,08,23,07,04,11.50
2015,08,23,07,05,11.50
2015,08,23,07,06,11.50
2015,08,23,07,07,11.60
2015,08,23,07,08,11.60
2015,08,23,07,09,11.70
2015,08,23,07,10,11.70
2015,08,23,07,11,11.70
2015,08,23,07,12,11.70
2015,08,23,07,13,11.80
2015,08,23,07,14,11.80
2015,08,23,07,15,11.80
2015,08,23,07,16,11.80
2015,08,23,07,17,11.90
2015,08,23,07,18,11.90
2015,08,23,07,19,11.90
2015,08,23,07,20,11.90
2015,08,23,07,21,12.00
2015,08,23,07,22,12.10
2015,08,23,07,23,12.10
2015,08,23,07,24,12.10
2015,08,23,07,25,12.20
2015,08,23,07,26,12.20
2015,08,23,07,27,12.30
2015,08,23,07,28,12.40
2015,08,23,07,29,12.50
2015,08,23,07,30,12.60
2015,08,23,07,31,12.70
2015,08,23,07,32,12.80
2015,08,23,07,33,12.90
2015,08,23,07,34,12.90
2015,08,23,07,35,13.00
2015,08,23,07,36,13.10
2015,08,23,07,37,13.20
2015,08,23,07,38,13.30
2015,08,23,07,39,13.40
2015,08,23,07,40,13.50
2015,08,23,07,41,13.60
2015,08,23,07,42,13.70
2015,08,23,07,43,13.80
2015,08,23,07,44,13.90
2015,08,23,07,45,14.00
2015,08,23,07,46,14.10
2015,08,23,07,47,14.20
2015,08,23,07,48,14.30
2015,08,23,07,49,14.40
2015,08,23,07,50,14.50
2015,08,23,07,51,14.60
2015,08,23,07,52,14.70
2015,08,23,07,53,14.90
2015,08,23,07,54,15.00
2015,08,23,07,55,15.10
2015,08,23,07,56,15.20
2015,08,23,07,57,15.40
2015,08,23,07,58,15.50
2015,08,23,07,59,15.60
2015,08,23,08,00,15.70
2015,08,23,08,01,15.80
2015,08,23,08,02,15.90
2015,08,23,08,03,16.00
2015,08,23,08,04,16.10
2015,08,23,08,05,16.20
2015,08,23,08,06,16.30
2015,08,23,08,07,16.40
2015,08,23,08,08,16.50
2015,08,23,08,09,16.50
2015,08,23,08,10,16.60
2015,08,23,08,11,16.70
2015,08,23,08,12,16.90
2015,08,23,08,13,16.90
2015,08,23,08,14,17.00
2015,08,23,08,15,17.10
2015,08,23,08,16,17.20
2015,08,23,08,17,17.20
2015,08,23,08,18,17.30
2015,08,23,08,19,17.30
2015,08,23,08,20,17.40
2015,08,23,08,21,17.40
2015,08,23,08,22,17.50
2015,08,23,08,23,17.60
2015,08,23,08,24,17.60
2015,08,23,08,25,17.70
2015,08,23,08,26,17.80
2015,08,23,08,27,17.80
2015,08,23,08,28,17.90
2015,08,23,08,29,18.00
2015,08,23,08,30,18.10
2015,08,23,08,31,18.30
2015,08,23,08,32,18.40
2015,08,23,08,33,18.50
2015,08,23,08,34,18.70
2015,08,23,08,35,18.70
2015,08,23,08,36,18.80
2015,08,23,08,37,18.90
2015,08,23,08,38,19.00
2015,08,23,08,39,19.10
2015,08,23,08,40,19.20
2015,08,23,08,41,19.30
2015,08,23,08,42,19.40
2015,08,23,08,43,19.50
2015,08,23,08,44,19.50
2015,08,23,08,45,19.60
2015,08,23,08,46,19.60
2015,08,23,08,47,19.70
2015,08,23,08,48,19.70
2015,08,23,08,49,19.80
2015,08,23,08,50,19.90
2015,08,23,08,51,20.00
2015,08,23,08,52,20.10
2015,08,23,08,53,20.20
2015,08,23,08,54,20.20
2015,08,23,08,55,20.30
2015,08,23,08,56,20.30
2015,08,23,08,57,20.40
2015,08,23,08,58,20.40
2015,08,23,08,59,20.40
2015,08,23,09,00,20.50
2015,08,23,09,01,20.50
2015,08,23,09,02,20.60
2015,08,23,09,03,20.70
2015,08,23,09,04,20.70
2015,08,23,09,05,20.70
2015,08,23,09,06,20.70
2015,08,23,09,07,20.80
2015,08,23,09,08,20.80
2015,08,23,09,09,20.80
2015,08,23,09,10,20.80
2015,08,23,09,11,20.90
2015,08,23,09,12,20.90
2015,08,23,09,13,20.90
2015,08,23,09,14,20.80
2015,08,23,09,15,20.80
2015,08,23,09,16,20.70
2015,08,23,09,17,20.70
2015,08,23,09,18,20.70
2015,08,23,09,19,20.70
2015,08,23,09,20,20.70
2015,08,23,09,21,20.70
2015,08,23,09,22,20.80
2015,08,23,09,23,20.80
2015,08,23,09,24,20.90
2015,08,23,09,25,21.00
2015,08,23,09,26,21.10
2015,08,23,09,27,21.10
2015,08,23,09,28,21.10
2015,08,23,09,29,21.20
2015,08,23,09,30,21.20
2015,08,23,09,31,21.30
2015,08,23,09,32,21.40
2015,08,23,09,33,21.50
2015,08,23,09,34,21.60
2015,08,23,09,35,21.60
2015,08,23,09,36,21.60
2015,08,23,09,37,21.70
2015,08,23,09,38,21.60
2015,08,23,09,39,21.60
2015,08,23,09,40,21.60
2015,08,23,09,41,21.70
2015,08,23,09,42,21.70
2015,08,23,09,43,21.70
2015,08,23,09,44,21.70
2015,08,23,09,45,21.70
2015,08,23,09,46,21.60
2015,08,23,09,47,21.60
2015,08,23,09,48,21.60
2015,08,23,09,49,21.60
2015,08,23,09,50,21.60
2015,08,23,09,51,21.70
2015,08,23,09,52,21.70
2015,08,23,09,53,21.70
2015,08,23,09,54,21.70
2015,08,23,09,55,21.80
2015,08,23,09,56,21.80
2015,08,23,09,57,21.80
2015,08,23,09,58,21.80
2015,08,23,09,59,21.80
2015,08,23,10,00,21.90
2015,08,23,10,01,21.90
2015,08,23,10,02,21.90
2015,08,23,10,03,22.00
2015,08,23,10,04,22.00
2015,08,23,10,05,22.00
2015,08,23,10,06,22.00
2015,08,23,10,07,22.10
2015,08,23,10,08,22.10
2015,08,23,10,09,22.00
2015,08,23,10,10,22.00
2015,08,23,10,11,22.10
2015,08,23,10,12,22.20
2015,08,23,10,13,22.30
2015,08,23,10,14,22.40
2015,08,23,10,15,22.50
2015,08,23,10,16,22.50
2015,08,23,10,17,22.50
2015,08,23,10,18,22.50
2015,08,23,10,19,22.40
2015,08,23,10,20,22.40
2015,08,23,10,21,22.40
2015,08,23,10,22,22.30
2015,08,23,10,23,22.30
2015,08,23,10,24,22.20
2015,08,23,10,25,22.20
2015,08,23,10,26,22.30
2015,08,23,10,27,22.40
2015,08,23,10,28,22.50
2015,08,23,10,29,22.70
2015,08,23,10,30,22.80
2015,08,23,10,31,22.90
2015,08,23,10,32,22.90
2015,08,23,10,33,22.90
2015,08,23,10,34,22.90
2015,08,23,10,35,22.80
2015,08,23,10,36,22.70
2015,08,23,10,37,22.70
2015,08,23,10,38,22.70
2015,08,23,10,39,22.70
2015,08,23,10,40,22.70
2015,08,23,10,41,22.80
2015,08,23,10,42,22.80
2015,08,23,10,43,22.80
2015,08,23,10,44,22.70
2015,08,23,10,45,22.60
2015,08,23,10,46,22.50
2015,08,23,10,47,22.40
2015,08,23,10,48,22.40
2015,08,23,10,49,22.40
2015,08,23,10,50,22.40
2015,08,23,10,51,22.40
2015,08,23,10,52,22.50
2015,08,23,10,53,22.60
2015,08,23,10,54,22.70
2015,08,23,10,55,22.70
2015,08,23,10,56,22.80
2015,08,23,10,57,22.80
2015,08,23,10,58,22.90
2015,08,23,10,59,23.00
2015,08,23,11,00,23.00
2015,08,23,11,01,23.10
2015,08,23,11,02,23.00
2015,08,23,11,03,22.90
2015,08,23,11,04,23.00
2015,08,23,11,05,23.00
2015,08,23,11,06,23.00
2015,08,23,11,07,23.00
2015,08,23,11,08,23.10
2015,08,23,11,09,23.10
2015,08,23,11,10,23.10
2015,08,23,11,11,23.10
2015,08,23,11,12,23.10
2015,08,23,11,13,23.20
2015,08,23,11,14,23.20
2015,08,23,11,15,23.20
2015,08,23,11,16,23.20
2015,08,23,11,17,23.10
2015,08,23,11,18,23.10
2015,08,23,11,19,23.10
2015,08,23,11,20,23.00
2015,08,23,11,21,23.10
2015,08,23,11,22,23.10
2015,08,23,11,23,23.10
2015,08,23,11,24,23.20
2015,08,23,11,25,23.20
2015,08,23,11,26,23.30
2015,08,23,11,27,23.30
2015,08,23,11,28,23.40
2015,08,23,11,29,23.40
2015,08,23,11,30,23.30
2015,08,23,11,31,23.30
2015,08,23,11,32,23.40
2015,08,23,11,33,23.40
2015,08,23,11,34,23.30
2015,08,23,11,35,23.40
2015,08,23,11,36,23.40
2015,08,23,11,37,23.50
2015,08,23,11,38,23.60
2015,08,23,11,39,23.60
2015,08,23,11,40,23.70
2015,08,23,11,41,23.70
2015,08,23,11,42,23.80
2015,08,23,11,43,23.80
2015,08,23,11,44,23.80
2015,08,23,11,45,23.70
2015,08,23,11,46,23.70
2015,08,23,11,47,23.60
2015,08,23,11,48,23.60
2015,08,23,11,49,23.60
2015,08,23,11,50,23.70
2015,08,23,11,51,23.80
2015,08,23,11,52,23.80
2015,08,23,11,53,23.70
2015,08,23,11,54,23.70
2015,08,23,11,55,23.60
2015,08,23,11,56,23.60
2015,08,23,11,57,23.60
2015,08,23,11,58,23.60
2015,08,23,11,59,23.60
2015,08,23,12,00,23.60
2015,08,23,12,01,23.60
2015,08,23,12,02,23.70
2015,08,23,12,03,23.70
2015,08,23,12,04,23.60
2015,08,23,12,05,23.60
2015,08,23,12,06,23.60
2015,08,23,12,07,23.60
2015,08,23,12,08,23.60
2015,08,23,12,09,23.70
2015,08,23,12,10,23.70
2015,08,23,12,11,23.70
2015,08,23,12,12,23.70
2015,08,23,12,13,23.70
2015,08,23,12,14,23.80
2015,08,23,12,15,23.80
2015,08,23,12,16,23.80
2015,08,23,12,17,23.90
2015,08,23,12,18,23.90
2015,08,23,12,19,24.00
2015,08,23,12,20,24.10
2015,08,23,12,21,24.10
2015,08,23,12,22,24.10
2015,08,23,12,23,24.00
2015,08,23,12,24,24.00
2015,08,23,12,25,24.00
2015,08,23,12,26,24.00
2015,08,23,12,27,24.10
2015,08,23,12,28,24.10
2015,08,23,12,29,24.10
2015,08,23,12,30,24.10
2015,08,23,12,31,24.10
2015,08,23,12,32,24.10
2015,08,23,12,33,24.10
2015,08,23,12,34,24.10
2015,08,23,12,35,24.10
2015,08,23,12,36,24.10
2015,08,23,12,37,24.20
2015,08,23,12,38,24.30
2015,08,23,12,39,24.40
2015,08,23,12,40,24.50
2015,08,23,12,41,24.50
2015,08,23,12,42,24.60
2015,08,23,12,43,24.70
2015,08,23,12,44,24.70
2015,08,23,12,45,24.80
2015,08,23,12,46,24.90
2015,08,23,12,47,24.90
2015,08,23,12,48,24.90
2015,08,23,12,49,24.80
2015,08,23,12,50,24.70
2015,08,23,12,51,24.60
2015,08,23,12,52,24.60
2015,08,23,12,53,24.60
2015,08,23,12,54,24.70
2015,08,23,12,55,24.80
2015,08,23,12,56,24.80
2015,08,23,12,57,24.90
2015,08,23,12,58,25.00
2015,08,23,12,59,25.00
2015,08,23,13,00,25.00
2015,08,23,13,01,25.00
2015,08,23,13,02,25.00
2015,08,23,13,03,25.10
2015,08,23,13,04,25.20
2015,08,23,13,05,25.20
2015,08,23,13,06,25.20
2015,08,23,13,07,25.20
2015,08,23,13,08,25.20
2015,08,23,13,09,25.30
2015,08,23,13,10,25.30
2015,08,23,13,11,25.20
2015,08,23,13,12,25.20
2015,08,23,13,13,25.20
2015,08,23,13,14,25.20
2015,08,23,13,15,25.30
2015,08,23,13,16,25.40
2015,08,23,13,17,25.50
2015,08,23,13,18,25.50
2015,08,23,13,19,25.60
2015,08,23,13,20,25.80
2015,08,23,13,21,25.90
2015,08,23,13,22,26.10
2015,08,23,13,23,26.30
2015,08,23,13,24,26.30
2015,08,23,13,25,26.30
2015,08,23,13,26,26.20
2015,08,23,13,27,26.20
2015,08,23,13,28,26.30
2015,08,23,13,29,26.40
2015,08,23,13,30,26.50
2015,08,23,13,31,26.50
2015,08,23,13,32,26.30
2015,08,23,13,33,26.20
2015,08,23,13,34,26.20
2015,08,23,13,35,26.20
2015,08,23,13,36,26.20
2015,08,23,13,37,26.20
2015,08,23,13,38,26.20
2015,08,23,13,39,26.30
2015,08,23,13,40,26.50
2015,08,23,13,41,26.60
2015,08,23,13,42,26.60
2015,08,23,13,43,26.60
2015,08,23,13,44,26.60
2015,08,23,13,45,26.70
2015,08,23,13,46,26.70
2015,08,23,13,47,26.70
2015,08,23,13,48,26.70
2015,08,23,13,49,26.70
2015,08,23,13,50,26.70
2015,08,23,13,51,26.60
2015,08,23,13,52,26.60
2015,08,23,13,53,26.60
2015,08,23,13,54,26.60
2015,08,23,13,55,26.60
2015,08,23,13,56,26.50
2015,08,23,13,57,26.30
2015,08,23,13,58,26.20
2015,08,23,13,59,26.20
2015,08,23,14,00,26.20
2015,08,23,14,01,26.20
2015,08,23,14,02,26.30
2015,08,23,14,03,26.20
2015,08,23,14,04,26.20
2015,08,23,14,05,26.30
2015,08,23,14,06,26.30
2015,08,23,14,07,26.40
2015,08,23,14,08,26.40
2015,08,23,14,09,26.50
2015,08,23,14,10,26.50
2015,08,23,14,11,26.40
2015,08,23,14,12,26.40
2015,08,23,14,13,26.40
2015,08,23,14,14,26.50
2015,08,23,14,15,26.60
2015,08,23,14,16,26.60
2015,08,23,14,17,26.60
2015,08,23,14,18,26.60
2015,08,23,14,19,26.60
2015,08,23,14,20,26.50
2015,08,23,14,21,26.50
2015,08,23,14,22,26.40
2015,08,23,14,23,26.50
2015,08,23,14,24,26.60
2015,08,23,14,25,26.70
2015,08,23,14,26,26.70
2015,08,23,14,27,26.70
2015,08,23,14,28,26.80
2015,08,23,14,29,26.90
2015,08,23,14,30,27.00
2015,08,23,14,31,27.00
2015,08,23,14,32,27.00
2015,08,23,14,33,26.90
2015,08,23,14,34,26.90
2015,08,23,14,35,26.90
2015,08,23,14,36,26.80
2015,08,23,14,37,26.70
2015,08,23,14,38,26.80
2015,08,23,14,39,26.80
2015,08,23,14,40,26.80
2015,08,23,14,41,26.80
2015,08,23,14,42,26.80
2015,08,23,14,43,26.80
2015,08,23,14,44,26.80
2015,08,23,14,45,26.70
2015,08,23,14,46,26.70
2015,08,23,14,47,26.70
2015,08,23,14,48,26.80
2015,08,23,14,49,26.90
2015,08,23,14,50,27.10
2015,08,23,14,51,27.20
2015,08,23,14,52,27.20
2015,08,23,14,53,27.30
2015,08,23,14,54,27.40
2015,08,23,14,55,27.40
2015,08,23,14,56,27.40
2015,08,23,14,57,27.40
2015,08,23,14,58,27.40
2015,08,23,14,59,27.40
2015,08,23,15,00,27.40
2015,08,23,15,01,27.30
2015,08,23,15,02,27.30
2015,08,23,15,03,27.20
2015,08,23,15,04,27.20
2015,08,23,15,05,27.20
2015,08,23,15,06,27.10
2015,08,23,15,07,27.10
2015,08,23,15,08,27.00
2015,08,23,15,09,26.90
2015,08,23,15,10,26.90
2015,08,23,15,11,26.90
2015,08,23,15,12,26.90
2015,08,23,15,13,26.90
2015,08,23,15,14,26.90
2015,08,23,15,15,27.00
2015,08,23,15,16,26.90
2015,08,23,15,17,26.90
2015,08,23,15,18,26.90
2015,08,23,15,19,26.90
2015,08,23,15,20,26.90
2015,08,23,15,21,27.00
2015,08,23,15,22,27.00
2015,08,23,15,23,27.10
2015,08,23,15,24,27.00
2015,08,23,15,25,27.00
2015,08,23,15,26,27.00
2015,08,23,15,27,27.10
2015,08,23,15,28,27.10
2015,08,23,15,29,27.10
2015,08,23,15,30,27.10
2015,08,23,15,31,27.10
2015,08,23,15,32,27.20
2015,08,23,15,33,27.30
2015,08,23,15,34,27.40
2015,08,23,15,35,27.50
2015,08,23,15,36,27.50
2015,08,23,15,37,27.50
2015,08,23,15,38,27.50
2015,08,23,15,39,27.60
2015,08,23,15,40,27.70
2015,08,23,15,41,27.60
2015,08,23,15,42,27.70
2015,08,23,15,43,27.80
2015,08,23,15,44,27.80
2015,08,23,15,45,27.90
2015,08,23,15,46,27.80
2015,08,23,15,47,27.70
2015,08,23,15,48,27.60
2015,08,23,15,49,27.50
2015,08,23,15,50,27.40
2015,08,23,15,51,27.40
2015,08,23,15,52,27.40
2015,08,23,15,53,27.50
2015,08,23,15,54,27.60
2015,08,23,15,55,27.70
2015,08,23,15,56,27.80
2015,08,23,15,57,27.90
2015,08,23,15,58,27.90
2015,08,23,15,59,28.00
2015,08,23,16,00,28.10
2015,08,23,16,01,28.20
2015,08,23,16,02,28.30
2015,08,23,16,03,28.50
2015,08,23,16,04,28.60
2015,08,23,16,05,28.80
2015,08,23,16,06,28.70
2015,08,23,16,07,28.60
2015,08,23,16,08,28.50
2015,08,23,16,09,28.40
2015,08,23,16,10,28.30
2015,08,23,16,11,28.40
2015,08,23,16,12,28.40
2015,08,23,16,13,28.40
2015,08,23,16,14,28.40
2015,08,23,16,15,28.40
2015,08,23,16,16,28.30
2015,08,23,16,17,28.30
2015,08,23,16,18,28.30
2015,08,23,16,19,28.30
2015,08,23,16,20,28.30
2015,08,23,16,21,28.20
2015,08,23,16,22,28.20
2015,08,23,16,23,28.10
2015,08,23,16,24,28.10
2015,08,23,16,25,28.00
2015,08,23,16,26,27.90
2015,08,23,16,27,27.80
2015,08,23,16,28,27.80
2015,08,23,16,29,27.80
2015,08,23,16,30,27.80
2015,08,23,16,31,27.90
2015,08,23,16,32,28.00
2015,08,23,16,33,28.10
2015,08,23,16,34,28.10
2015,08,23,16,35,28.00
2015,08,23,16,36,27.90
2015,08,23,16,37,27.80
2015,08,23,16,38,27.70
2015,08,23,16,39,27.70
2015,08,23,16,40,27.70
2015,08,23,16,41,27.70
2015,08,23,16,42,27.70
2015,08,23,16,43,27.60
2015,08,23,16,44,27.70
2015,08,23,16,45,27.70
2015,08,23,16,46,27.60
2015,08,23,16,47,27.40
2015,08,23,16,48,27.30
2015,08,23,16,49,27.30
2015,08,23,16,50,27.20
2015,08,23,16,51,27.20
2015,08,23,16,52,27.10
2015,08,23,16,53,27.10
2015,08,23,16,54,27.00
2015,08,23,16,55,27.00
2015,08,23,16,56,27.00
2015,08,23,16,57,27.00
2015,08,23,16,58,27.00
2015,08,23,16,59,27.00
2015,08,23,17,00,27.00
2015,08,23,17,01,27.10
2015,08,23,17,02,27.10
2015,08,23,17,03,27.10
2015,08,23,17,04,27.10
2015,08,23,17,05,27.20
2015,08,23,17,06,27.20
2015,08,23,17,07,27.20
2015,08,23,17,08,27.30
2015,08,23,17,09,27.40
2015,08,23,17,10,27.40
2015,08,23,17,11,27.40
2015,08,23,17,12,27.40
2015,08,23,17,13,27.30
2015,08,23,17,14,27.30
2015,08,23,17,15,27.30
2015,08,23,17,16,27.30
2015,08,23,17,17,27.30
2015,08,23,17,18,27.40
2015,08,23,17,19,27.40